Location: Ago
(8.4667°N, 4.4167°E)
Time: 14:42:45
(UTC+00:00)

ATLAS 2AS CENTAUR R/B - Pass Details

Date: 06 June 2020
Orbit: 930 x 1282 km, 63.7° (Epoch: 06 July)

Event Time Altitude Azimuth Distance (km) Brightness Sun altitude
Rises 19:52:22 0° 207° (SSW) 3,997 5.7 -25.9°
Reaches altitude 10° 19:55:00 10° 208° (SSW) 3,082 5.1 -26.5°
Maximum altitude 20:02:28 76° 293° (WNW) 1,266 3.1 -28.1°
Drops below altitude 10° 20:10:24 10° 19° (NNE) 3,259 5.3 -29.7°
Sets 20:13:15 0° 20° (NNE) 4,239 6.0 -30.3°
